Regional Weather Roundup
Issued by NWS

Home | Current Version | Previous Version | Text Only | Print | Product List | Glossary On
Versions: 1 2 3 4 5 6 7 8 9 10 11 12 13 14 15 16 17 18 19 20 21 22 23 24 25 26 27 28 29 30 31 32 33 34 35 36 37 38 39 40 41 42 43 44 45 46 47 48 49 50
000
ASUS43 KMPX 290501
RWRMN
WEATHER ROUNDUP FOR MINNESOTA
NATIONAL WEATHER SERVICE TWIN CITIES/CHANHASSEN MN
1200 AM CDT SAT APR 29 2017


NOTE: "FAIR" INDICATES FEW OR NO CLOUDS BELOW 12,000 FEET WITH NO
SIGNIFICANT WEATHER AND/OR OBSTRUCTIONS TO VISIBILITY. N/A MEANS
CURRENT SKY AND/OR WEATHER CONDITIONS ARE NOT AVAILABLE.

MNZ060>063-068>070-290600-
   Twin Cities Metro

CITY           SKY/WX    TMP DP  RH WIND       PRES   REMARKS
TWIN CITIES    CLOUDY    41  31  67 N6        30.11R
ST PAUL        CLOUDY    38  32  79 NW6       30.12R
CRYSTAL        CLEAR     41  25  53 N9        30.11R
LAKEVILLE      MOCLDY    37  30  75 CALM      30.09F
EDEN PRAIRIE   CLEAR     43  28  55 N7        30.10R
SOUTH ST PAUL  CLOUDY    42  30  61 NW3       30.11R
LAKE ELMO      FAIR      34  32  93 NW3       30.12R
$$
MNZ001>005-007-008-013>017-022>024-027-028-290600-
   Northwest Minnesota

CITY           SKY/WX    TMP DP  RH WIND       PRES   REMARKS
BEMIDJI        CLEAR     29  19  67 CALM      30.17R
HALLOCK        CLEAR     36  23  60 CALM      30.20R
ROSEAU         CLEAR     36  12  38 W3        30.18R
WARROAD        CLEAR     36  12  38 NW6       30.18R
THIEF RVR FALL CLEAR     38  13  35 N8        30.18S
CROOKSTON      CLEAR     37  28  70 CALM      30.19R
FOSSTON        CLEAR     27  18  69 CALM      30.18R
DETROIT LAKES  CLOUDY    37  27  65 NE3       30.17R
MOORHEAD       CLOUDY    37  27  65 CALM      30.19R
PARK RAPIDS    PTCLDY    39  17  41 N7        30.15R
MAHNOMEN       FAIR      34  25  68 NE3       30.17R
$$
MNZ006-009>011-018-025>026-290600-
   North Central Minnesota

CITY           SKY/WX    TMP DP  RH WIND       PRES   REMARKS
BAUDETTE       CLEAR     29  22  75 CALM      30.16R
FLAG ISLAND    CLEAR     36  27  69 CALM      30.16R
INTL FALLS     CLEAR     25  21  85 CALM      30.16R
WASKISH        CLEAR     28  27  93 CALM      30.17R
BIG FORK       CLEAR     28  25  86 CALM      30.17R
LONGVILLE      CLEAR     34  27  75 CALM      30.15R
GRAND RAPIDS   CLEAR     30  22  72 CALM      30.18
CRANE LAKE     CLEAR     23  21  93 CALM      30.18R
ORR            CLEAR     28  19  69 CALM      30.14R
COOK           CLEAR     27  25  93 CALM      30.16R
WALKER         FAIR      37  19  48 N5        30.16R
$$
MNZ012-019>021-037-290600-
   Northeast Minnesota

CITY           SKY/WX    TMP DP  RH WIND       PRES   REMARKS
DULUTH         PTCLDY    34  25  69 N5        30.14R WCI  30
ELY            CLEAR     27  23  86 CALM      30.14S
HIBBING        CLEAR     24  22  91 NW3       30.15R
EVELETH        CLEAR     28  24  87 CALM      30.16R
DULUTH HARBOR  CLEAR     37  34  87 E3        30.18S
TWO HARBORS    MOCLDY    39  27  60 CALM      30.14R
SILVER BAY     CLOUDY    30  27  86 CALM      30.14S
G MARAIS ARPRT CLOUDY    27  21  80 CALM      30.12R
$$
MNZ029>031-032-039>041-046>048-054>057-064-290600-
   West Central Minnesota

CITY           SKY/WX    TMP DP  RH WIND       PRES   REMARKS
FERGUS FALLS   CLOUDY    37  21  52 CALM      30.18R
WHEATON        CLOUDY    39  21  48 CALM      30.19S
MORRIS         CLOUDY    36  25  64 N7        30.16R
ALEXANDRIA     PTCLDY    41  20  43 N5        30.16R
ELBOW LAKE     FAIR      36  31  82 CALM      30.17R
WADENA         CLEAR     36  19  51 CALM      30.16R
GLENWOOD       PTCLDY    37  21  52 N8        30.16R
APPLETON       CLEAR     36  23  60 N5        30.16R
BENSON         CLEAR     37  21  52 NE6       30.18R
ORTONVILLE     CLEAR     36  25  64 N10       30.16R
MADISON        CLEAR     37  28  70 N8        30.15R
WILLMAR        FAIR      39  27  60 N7        30.16R
$$
MNZ033>034-036-042>043-049>051-058-059-290600-
   Central Minnesota

CITY           SKY/WX    TMP DP  RH WIND       PRES   REMARKS
ST CLOUD       CLEAR     40  23  50 N7        30.14R
SAUK CENTRE    FAIR      38  22  52 N8        30.16R
PAYNESVILLE    CLEAR     39  23  52 CALM      30.16R
AITKIN         CLEAR     37  21  52 CALM      30.15R
PINE RIVER     CLEAR     30  21  69 CALM      30.18R
BRAINERD       CLEAR     37  23  56 CALM      30.16R
STAPLES        CLEAR     30  21  69 CALM      30.16R
LONG PRAIRIE   FAIR      34  23  64 W6        30.16R WCI  29
LITTLE FALLS   CLEAR     32  23  69 CALM      30.16R
LITCHFIELD     CLEAR     39  27  60 N6        30.15R
BUFFALO        PTCLDY    42  22  45 N6        30.15R
MAPLE LAKE     PTCLDY    41  26  53 N5        30.15R
HUTCHINSON     CLEAR     39  30  69 CALM      30.14R
$$
MNZ037-044-045-052-053-290600-
   East Central Minnesota

CITY           SKY/WX    TMP DP  RH WIND       PRES   REMARKS
PRINCETON      CLEAR     41  25  52 N6        30.15R
MORA           CLEAR     37  27  65 CALM      30.17R
CAMBRIDGE      CLEAR     45  28  53 N5        30.13R
RUSH CITY      CLEAR     39  28  65 N7        30.15R
MOOSE LAKE     CLEAR     36  25  64 CALM      30.15R
HINCKLEY       FAIR      39  28  65 NE8       30.16R
CLOQUET        CLEAR     34  21  60 CALM      30.15R
MCGREGOR       CLEAR     36  25  64 NE5       30.16R
$$
MNZ071>073-080-081-089-090-097-098-290600-
   Southwest Minnesota

CITY           SKY/WX    TMP DP  RH WIND       PRES   REMARKS
MONTEVIDEO     CLOUDY    37  25  60 NE12      30.15R
GRANITE FALLS  CLOUDY    41  27  56 N10       30.15S
CANBY          CLEAR     36  27  70 W6        30.17R
MARSHALL       CLOUDY    32  25  75 NW9       30.15R WCI  24
REDWOOD FALLS  CLOUDY    41  24  51 N8        30.12R
OLIVIA         CLOUDY    37  28  70 N8        30.13R
PIPESTONE      CLOUDY    37  21  52 NE9       30.12R
WINDOM         CLOUDY    36  28  75 VRB5      30.12R
JACKSON        CLOUDY    34  30  86 CALM      30.11R
TRACY          CLOUDY    38  25  61 NW8       30.14R
SLAYTON        CLOUDY    36  24  63 N5        30.12R
$$
MNZ065>067-074>077-082>085-091>093-290600-
   South Central Minnesota

CITY           SKY/WX    TMP DP  RH WIND       PRES   REMARKS
MANKATO        CLOUDY    41  28  60 N8        30.11R
NEW ULM        CLOUDY    41  27  56 CALM      30.11R
ST JAMES       CLOUDY    37  30  75 CALM      30.13R
FAIRMONT       CLOUDY    38  32  79 N6        30.11R
GLENCOE        CLOUDY    38  32  81 N6        30.12R
FARIBAULT      CLOUDY    36  34  93 CALM      30.10S
OWATONNA       CLOUDY    39  30  70 CALM      30.10R
WASECA         CLOUDY    37  32  81 NE3       30.11R
ALBERT LEA     CLOUDY    37  30  75 N5        30.09R
$$
MNZ078>079-086>088-094>096-290600-
   Southeast Minnesota

CITY           SKY/WX    TMP DP  RH WIND       PRES   REMARKS
ROCHESTER      CLOUDY    38  31  76 NE8       30.08R
RED WING       PTCLDY    37  30  75 N5        30.10R
STANTON        PTCLDY    37  32  84 CALM      30.09S
DODGE CENTER   PTCLDY    37  30  75 N3        30.09R
WINONA         MOCLDY    41  32  70 CALM      30.10R
AUSTIN         PTCLDY    39  30  70 NE3       30.08R
PRESTON        CLOUDY    38  32  76 N8        30.08R
$$
ABBREVIATIONS USED IN REMARKS
   TC - TEMPERATURES IN CELSIUS
  WCI - WIND CHILL INDEX
   HX - HEAT INDEX
  VSB - VISIBILITY
$$



USA.gov is the U.S. government's official web portal to all federal, state and local government web resources and services.